Wooster, OH

9:19 AM EDT on April 20, 2018 (GMT -0400)
Wayne County

Weather History for KBJJ - December, 2013

Change the Weather History Date:

Tuesday, December 31, 2013

  Actual Average Record
Temperature  
Mean Temperature 20 °F -  
Max Temperature 23 °F 32 °F 55 °F (2010)
Min Temperature 17 °F 19 °F -5 °F (2017)
Degree Days  
Heating Degree Days 45    
Moisture  
Dew Point 13 °F    
Average Humidity 78    
Maximum Humidity 86    
Minimum Humidity 68    
Precipitation  
Precipitation 0.00 in - - ()
Sea Level Pressure  
Sea Level Pressure 30.19 in    
Wind  
Wind Speed 11 mph (WSW)    
Max Wind Speed 24 mph    
Max Gust Speed 34 mph    
Visibility 6 miles    
Events Snow    
Averages and records for this station are not official NWS values.
T = Trace of Precipitation, MM = Missing Value Source: NWS Daily Summary

Daily Weather History Graph

Daily Weather History Graph

Search for Another Location

Airport or City:

Astronomy

Dec. 31, 2013 Rise Set
Actual Time 7:51 AM EST 5:09 PM EST
Civil Twilight 7:21 AM EST 5:40 PM EST
Nautical Twilight 6:46 AM EST 6:15 PM EST
Astronomical Twilight 6:13 AM EST 6:48 PM EST
Moon 6:43 AM EST (12/31) 4:44 PM EST (12/31)
Length of Visible Light 10h 19m
Length of Day
9h 17m
Waning Crescent, 1% of the Moon is Illuminated
Dec 31
Waning Crescent
Jan 1
New
Jan 7
First Quarter
Jan 15
Full
Jan 24
Last Quarter

Hourly Weather History & Observations

Time (EST) Temp. Windchill Dew Point Humidity Pressure Visibility Wind Dir Wind Speed Gust Speed Precip Events Conditions
12:11 AM 21.2 °F 12.6 °F 17.6 °F 86% 30.10 in 10.0 mi South 6.9 mph - N/A   Overcast
12:34 AM 21.2 °F 12.6 °F 17.6 °F 86% 30.09 in 10.0 mi SSW 6.9 mph - N/A   Overcast
12:41 AM 21.2 °F 12.6 °F 17.6 °F 86% 30.09 in 10.0 mi SSW 6.9 mph - N/A   Overcast
12:56 AM 21.9 °F 15.7 °F 18.0 °F 85% 30.14 in 9.0 mi SW 4.6 mph - N/A   Overcast
1:05 AM 21.2 °F 11.7 °F 17.6 °F 86% 30.08 in 10.0 mi SSW 8.1 mph - N/A   Overcast
1:51 AM 23.0 °F 12.4 °F 15.8 °F 74% 30.07 in 10.0 mi WSW 10.4 mph - N/A   Overcast
1:56 AM 23.0 °F 13.1 °F 15.1 °F 72% 30.12 in 10.0 mi WSW 9.2 mph - N/A   Overcast
2:33 AM 21.2 °F 9.5 °F 15.8 °F 80% 30.08 in 2.5 mi West 11.5 mph - 0.00 in Snow Light Snow
2:49 AM 21.2 °F 10.9 °F 17.6 °F 86% 30.08 in 4.0 mi WSW 9.2 mph - 0.00 in Snow Light Snow
2:56 AM 21.9 °F 11.0 °F 17.1 °F 82% 30.14 in 4.0 mi WSW 10.4 mph - 0.00 in Snow Light Snow
3:56 AM 21.0 °F 8.1 °F 16.0 °F 81% 30.12 in 3.0 mi WSW 13.8 mph - 0.00 in Snow Light Snow
4:20 AM 21.2 °F 10.9 °F 15.8 °F 80% 30.05 in 2.0 mi WSW 9.2 mph - 0.00 in Snow Light Snow
4:42 AM 19.4 °F 7.2 °F 15.8 °F 86% 30.05 in 3.0 mi WSW 11.5 mph - 0.00 in Snow Light Snow
4:56 AM 19.9 °F 9.3 °F 16.0 °F 85% 30.10 in 2.5 mi WSW 9.2 mph - 0.00 in Snow Light Snow
5:47 AM 21.2 °F 10.9 °F 17.6 °F 86% 30.05 in 1.2 mi WSW 9.2 mph - 0.00 in Snow Light Snow
5:56 AM 21.0 °F 9.9 °F 17.1 °F 85% 30.10 in 1.2 mi WSW 10.4 mph - 0.00 in Snow Light Snow
6:17 AM 21.2 °F 9.5 °F 17.6 °F 86% 30.05 in 2.5 mi WSW 11.5 mph - 0.00 in Snow Light Snow
6:56 AM 21.0 °F 8.6 °F 16.0 °F 81% 30.12 in 3.0 mi West 12.7 mph - 0.00 in Snow Light Snow
7:10 AM 19.4 °F 6.0 °F 15.8 °F 86% 30.07 in 1.8 mi West 13.8 mph - 0.00 in Snow Light Snow
7:21 AM 19.4 °F 4.5 °F 15.8 °F 86% 30.07 in 3.0 mi West 17.3 mph - 0.00 in Snow Light Snow
7:47 AM 19.4 °F 2.5 °F 12.2 °F 74% 30.08 in 5.0 mi West 23.0 mph 31.1 mph 0.00 in Snow Light Snow
7:56 AM 19.0 °F 2.7 °F 12.0 °F 74% 30.14 in 3.0 mi West 20.7 mph 34.5 mph 0.00 in Snow Light Snow
8:40 AM 17.6 °F 3.2 °F 12.2 °F 79% 30.12 in 2.0 mi West 15.0 mph 25.3 mph 0.00 in Snow Light Snow
8:54 AM 17.6 °F 3.2 °F 12.2 °F 79% 30.13 in 1.5 mi West 15.0 mph - 0.00 in Snow Light Snow
8:56 AM 17.1 °F 3.6 °F 12.0 °F 81% 30.19 in 1.5 mi West 12.7 mph - 0.00 in Snow Light Snow
9:52 AM 17.6 °F 3.2 °F 12.2 °F 79% 30.17 in 3.0 mi West 15.0 mph - 0.00 in Snow Light Snow
9:56 AM 17.1 °F 3.0 °F 10.9 °F 77% 30.23 in 5.0 mi West 13.8 mph - 0.00 in Snow Light Snow
10:56 AM 18.0 °F 0.2 °F 9.0 °F 68% 30.27 in 6.0 mi West 24.2 mph 33.4 mph 0.00 in Snow Light Snow
11:56 AM 17.1 °F -0.3 °F 9.0 °F 71% 30.30 in 5.0 mi West 21.9 mph 27.6 mph 0.00 in Snow Light Snow
12:10 PM 17.6 °F 1.7 °F 8.6 °F 68% 30.24 in 2.0 mi West 18.4 mph 31.1 mph 0.00 in Snow Light Snow
12:29 PM 17.6 °F 1.7 °F 10.4 °F 73% 30.25 in 5.0 mi West 18.4 mph 26.5 mph 0.00 in Snow Light Snow
12:49 PM 17.6 °F 2.7 °F 8.6 °F 68% 30.25 in 8.0 mi West 16.1 mph 28.8 mph 0.00 in   Overcast
12:56 PM 18.0 °F 4.2 °F 10.0 °F 71% 30.31 in 7.0 mi West 13.8 mph - 0.00 in Snow Light Snow
1:04 PM 17.6 °F 2.2 °F 10.4 °F 73% 30.26 in 5.0 mi West 17.3 mph - 0.00 in Snow Light Snow
1:56 PM 18.0 °F 2.6 °F 9.0 °F 68% 30.32 in 10.0 mi West 17.3 mph 26.5 mph 0.00 in   Overcast
2:56 PM 17.1 °F 2.0 °F 9.0 °F 71% 30.32 in 10.0 mi West 16.1 mph - 0.00 in   Overcast
3:56 PM 18.0 °F 4.8 °F 10.0 °F 71% 30.32 in 10.0 mi West 12.7 mph - 0.00 in   Mostly Cloudy
4:05 PM 17.6 °F 5.7 °F 10.4 °F 73% 30.27 in 10.0 mi West 10.4 mph - N/A   Scattered Clouds
4:18 PM 17.6 °F 5.0 °F 10.4 °F 73% 30.27 in 10.0 mi WSW 11.5 mph - N/A   Mostly Cloudy
4:45 PM 19.4 °F 6.6 °F 10.4 °F 68% 30.26 in 10.0 mi WSW 12.7 mph - N/A   Scattered Clouds
4:56 PM 19.0 °F 8.2 °F 10.0 °F 68% 30.31 in 10.0 mi WSW 9.2 mph - N/A   Partly Cloudy
5:56 PM 18.0 °F 11.1 °F 10.9 °F 74% 30.31 in 10.0 mi SW 4.6 mph - N/A   Partly Cloudy
6:56 PM 17.1 °F 8.7 °F 10.9 °F 77% 30.32 in 10.0 mi WSW 5.8 mph - N/A   Clear
7:56 PM 18.0 °F 9.8 °F 12.0 °F 78% 30.33 in 10.0 mi SW 5.8 mph - N/A   Mostly Cloudy
8:56 PM 21.0 °F 14.6 °F 14.0 °F 74% 30.33 in 10.0 mi WSW 4.6 mph - N/A   Overcast
9:56 PM 21.0 °F - 15.1 °F 78% 30.33 in 6.0 mi Calm Calm - 0.00 in Snow Light Snow
10:56 PM 19.9 °F - 16.0 °F 85% 30.34 in 4.0 mi Calm Calm - 0.00 in Snow Light Snow
11:56 PM 21.0 °F 14.6 °F 16.0 °F 81% 30.35 in 9.0 mi NW 4.6 mph - 0.00 in   Overcast